ZL1KPB-13 Weather Reports


time (UTC)temp
C
wind
direction
speed
KPH
gust
KPH
rain 1hr
cm
rain 24hr
cm
rain mn
cm
humidity
%
barometer
mb
20260506034031 19 79 0.0 3.2 0.00 0.00 0.00 69 1031.2
20260506033026 20 70 1.6 3.2 0.00 0.00 0.00 66 1031.1
20260506032023 22 240 3.2 6.4 0.00 0.00 0.00 61 1031.3
20260506031020 22 197 3.2 4.8 0.00 0.00 0.00 63 1031.3
20260506030116 21 326 1.6 4.8 0.00 0.00 0.00 63 1031.3
20260506025113 21 65 6.4 8.0 0.00 0.00 0.00 60 1031.3
20260506024109 21 230 8.0 12.9 0.00 0.00 0.00 61 1031.3
20260506023106 21 269 6.4 8.0 0.00 0.00 0.00 65 1031.4
20260506022101 20 241 3.2 8.0 0.00 0.00 0.00 64 1031.4
20260506021057 20 271 0.0 4.8 0.00 0.00 0.00 62 1031.4
20260506020054 21 238 6.4 8.0 0.00 0.00 0.00 56 1031.4
20260506015050 21 241 3.2 4.8 0.00 0.00 0.00 58 1031.5
20260506014046 21 243 6.4 12.9 0.00 0.00 0.00 60 1031.5
20260506013043 21 263 6.4 12.9 0.00 0.00 0.00 60 1031.7
20260506012040 21 248 8.0 12.9 0.00 0.00 0.00 60 1031.7
20260506011036 21 238 8.0 14.5 0.00 0.00 0.00 61 1031.8
20260506010033 22 49 9.7 24.1 0.00 0.00 0.00 65 1031.9
20260506005051 21 52 1.6 3.2 0.00 0.00 0.00 70 1031.9
20260506004151 20 128 1.6 6.4 0.00 0.00 0.00 72 1031.9
20260506003104 18 203 3.2 4.8 0.00 0.00 0.00 73 1032.0
20260506002122 18 168 4.8 8.0 0.00 0.00 0.00 73 1032.1
20260506001115 18 106 3.2 4.8 0.00 0.00 0.00 72 1032.2
20260506000112 19 135 3.2 6.4 0.00 0.00 0.00 70 1032.3
20260505235108 21 57 4.8 8.0 0.00 0.00 0.00 69 1032.5
20260505234105 20 144 4.8 11.3 0.00 0.00 0.00 70 1032.5
20260505233101 20 187 4.8 9.7 0.00 0.00 0.00 70 1032.6
20260505232058 20 119 6.4 9.7 0.00 0.00 0.00 66 1032.5
20260505231054 21 138 4.8 9.7 0.00 0.00 0.00 70 1032.7
20260505230050 20 140 4.8 6.4 0.00 0.00 0.00 72 1032.8
20260505225047 19 135 3.2 6.4 0.00 0.00 0.00 74 1032.9
20260505224104 18 142 4.8 6.4 0.00 0.00 0.00 73 1033.0
20260505223101 19 144 4.8 8.0 0.00 0.00 0.00 73 1033.0
20260505222036 18 142 4.8 8.0 0.00 0.00 0.00 74 1033.0
20260505221032 17 150 3.2 4.8 0.00 0.00 0.00 82 1033.2
20260505220029 16 123 1.6 3.2 0.00 0.00 0.00 85 1033.2
20260505215026 16 135 1.6 4.8 0.00 0.00 0.00 87 1033.3
20260505214043 15 58 1.6 4.8 0.00 0.00 0.00 89 1033.3
20260505213019 15 50 1.6 3.2 0.00 0.00 0.00 90 1033.3
20260505212116 14 111 1.6 4.8 0.00 0.00 0.00 92 1033.3
20260505211112 15 248 1.6 3.2 0.00 0.00 0.00 97 1033.3
20260505210108 15 248 1.6 3.2 0.00 0.00 0.00 99 1033.2
20260505205105 15 158 0.0 3.2 0.00 0.00 0.00 99 1033.1
20260505204102 14 158 0.0 3.2 0.00 0.00 0.00 99 1033.1
20260505203222 13 0.0 0.0 0.00 0.00 0.00 99 1032.9
20260505202115 12 0.0 0.0 0.00 0.00 0.00 99 1032.8
20260505201051 12 0.0 1.6 0.00 0.00 0.00 99 1032.7
20260505200047 12 0.0 0.0 0.00 0.00 0.00 99 1032.5
20260505195043 12 0.0 1.6 0.00 0.00 0.00 99 1032.5
20260505194041 11 0.0 1.6 0.00 0.00 0.00 99 1032.4
20260505193036 11 0.0 0.0 0.00 0.00 0.00 99 1032.3
20260505192033 11 0.0 0.0 0.00 0.00 0.00 99 1032.2
20260505191029 11 0.0 0.0 0.00 0.00 0.00 99 1032.2
20260505190026 11 0.0 0.0 0.00 0.00 0.00 99 1032.2
20260505185043 11 0.0 0.0 0.00 0.00 0.00 99 1032.2
20260505184041 12 0.0 0.0 0.00 0.00 0.00 99 1032.1
20260505183116 12 203 0.0 3.2 0.00 0.00 0.00 99 1031.9
20260505182133 12 0.0 0.0 0.00 0.00 0.00 99 1032.0
20260505181109 12 0.0 0.0 0.00 0.00 0.00 99 1032.0
20260505180105 12 0.0 0.0 0.00 0.00 0.00 99 1032.0
20260505175102 12 0.0 0.0 0.00 0.00 0.00 99 1032.1
20260505174058 11 0.0 0.0 0.00 0.00 0.00 99 1032.1
20260505173136 12 0.0 0.0 0.00 0.00 0.00 99 1032.1
20260505172051 12 0.0 0.0 0.00 0.00 0.00 99 1032.2
20260505171048 12 0.0 0.0 0.00 0.00 0.00 99 1032.3
20260505170045 12 0.0 0.0 0.00 0.00 0.00 99 1032.2
20260505165041 12 203 0.0 3.2 0.00 0.00 0.00 99 1032.3
20260505164038 12 0.0 0.0 0.00 0.00 0.00 99 1032.2
20260505163033 12 135 0.0 3.2 0.00 0.00 0.00 96 1032.3
20260505162031 12 135 0.0 3.2 0.00 0.00 0.00 98 1032.2
20260505161027 12 203 1.6 3.2 0.00 0.00 0.00 98 1032.2
20260505153134 12 0.0 1.6 0.00 0.00 0.00 97 1032.5
20260505152109 12 135 0.0 3.2 0.00 0.00 0.00 97 1032.5
20260505151105 12 135 0.0 3.2 0.00 0.00 0.00 96 1032.5
20260505125017 13 90 1.6 3.2 0.00 0.00 0.00 85 1033.6
20260505124113 13 247 3.2 4.8 0.00 0.00 0.00 85 1033.7
20260505123109 13 243 3.2 6.4 0.00 0.00 0.00 85 1033.9
20260505122105 13 248 3.2 6.4 0.00 0.00 0.00 84 1033.9
20260505121123 13 263 1.6 3.2 0.00 0.00 0.00 84 1034.0
20260505120100 13 248 1.6 3.2 0.00 0.00 0.00 84 1034.0
20260505115117 13 259 1.6 3.2 0.00 0.00 0.00 83 1034.0
20260505114051 13 259 1.6 3.2 0.00 0.00 0.00 83 1034.0
20260505113048 13 255 3.2 4.8 0.00 0.00 0.00 82 1034.1
20260505112046 13 284 1.6 4.8 0.00 0.00 0.00 82 1034.1
20260505111041 13 255 4.8 6.4 0.00 0.00 0.00 82 1034.1
20260505102026 13 45 1.6 6.4 0.00 0.00 0.00 85 1034.4
20260505101022 13 285 1.6 3.2 0.00 0.00 0.00 85 1034.5
20260505100016 13 270 1.6 4.8 0.00 0.00 0.00 86 1034.5
20260505095134 13 248 1.6 3.2 0.00 0.00 0.00 87 1034.4
20260505094130 13 45 0.0 3.2 0.00 0.00 0.00 88 1034.4
20260505093106 13 42 1.6 4.8 0.00 0.00 0.00 89 1034.4
20260505092102 13 233 3.2 6.4 0.00 0.00 0.00 89 1034.4
20260505091139 12 285 4.8 6.4 0.00 0.00 0.00 88 1034.4
20260505090055 12 28 1.6 3.2 0.00 0.00 0.00 87 1034.4
20260505085051 12 45 0.0 3.2 0.00 0.00 0.00 85 1034.4
20260505084108 13 0.0 0.0 0.00 0.00 0.00 85 1034.3
20260505083046 13 0.0 0.0 0.00 0.00 0.00 85 1034.5
20260505082042 13 0.0 0.0 0.00 0.00 0.00 85 1034.4
20260505081038 13 45 0.0 3.2 0.00 0.00 0.00 84 1034.4
20260505080058 13 0.0 1.6 0.00 0.00 0.00 84 1034.5
20260505075030 13 0.0 0.0 0.00 0.00 0.00 83 1034.5
20260505074027 13 0.0 0.0 0.00 0.00 0.00 83 1034.6
20260505073023 13 0.0 1.6 0.00 0.00 0.00 83 1034.4
20260505072020 13 0.0 0.0 0.00 0.00 0.00 82 1034.4
20260505071016 13 0.0 0.0 0.00 0.00 0.00 82 1034.4
20260505070113 13 0.0 1.6 0.00 0.00 0.00 82 1034.4
20260505065150 14 45 1.6 3.2 0.00 0.00 0.00 82 1034.3
20260505064106 14 45 1.6 4.8 0.00 0.00 0.00 83 1034.3
20260505063104 14 45 1.6 3.2 0.00 0.00 0.00 84 1034.3
20260505062059 13 231 4.8 9.7 0.00 0.00 0.00 84 1034.3
20260505061055 13 0.0 0.0 0.00 0.00 0.00 83 1034.3
20260505060052 13 0.0 0.0 0.00 0.00 0.00 82 1034.3
20260505055109 13 0.0 0.0 0.00 0.00 0.00 80 1034.2
20260505054127 13 90 0.0 3.2 0.00 0.00 0.00 80 1034.1
20260505053103 13 90 1.6 3.2 0.00 0.00 0.00 77 1034.2
20260505052038 14 0.0 1.6 0.00 0.00 0.00 76 1034.2
20260505051034 15 90 0.0 1.6 0.00 0.00 0.00 76 1034.2
20260505041113 16 90 0.0 3.2 0.00 0.00 0.00 72 1034.6
20260505040130 16 90 0.0 3.2 0.00 0.00 0.00 71 1034.7
20260505035105 16 90 0.0 3.2 0.00 0.00 0.00 71 1034.6